Torna al catalogo

CHUANG XIN 1-02

CX-1-02

AttivoScienzaSSO
NORAD 33434·PAYLOAD·🇨🇳 China

Lanciato Nov 5, 2008 da Jiuquan Satellite Launch Center

Loading…

Prossimi Passaggi (prossime 24 ore)

TLE

AggiornatoSource: Space-Track

Epoca: Sep 14, 2026, 11:58 UTC

1 33434U 08056B   26257.49914646  .00000016  00000-0  23240-4 0  9993
2 33434  98.6099 282.8615 0013205 235.9333 124.0596 14.30168097931381

Traccia CHUANG XIN 1-02 in tempo reale con AllMySat

Download on the App Store